When you browse on this site, cookies collect data to enhance your experience and personalize the content and advertising you see.
Visit our Privacy Policy to learn more. By continuing to use the site, you agree to this use of cookies and data.
  • In Hungary
  • List of Countries
  • For 7 days
  • Water Temperature
  • Satellite Maps
  • Weather Map
  • News
  • Weather Widgets
  • user-avatar
    Login

    Hourly Weather Matlock

    Today, 23 February, Saturday

    Time Temperature Precipitation Wind Pressure Humidity
    00:00 +5°C° 0 mm 3 mps 757 mmHg 85%
    01:00 +4°C° 0 mm 3 mps 757 mmHg 85%
    02:00 +4°C° 0 mm 3 mps 757 mmHg 85%
    03:00 +4°C° 0 mm 3 mps 756 mmHg 85%
    04:00 +4°C° 0 mm 3 mps 756 mmHg 87%
    05:00 +4°C° 0 mm 3 mps 756 mmHg 90%
    06:00 +4°C° 0 mm 3 mps 756 mmHg 92%
    07:00 +5°C° 0 mm 4 mps 756 mmHg 91%
    08:00 +6°C° 0 mm 4 mps 756 mmHg 89%
    09:00 +7°C° 0 mm 4 mps 756 mmHg 88%
    10:00 +8°C° 0 mm 5 mps 756 mmHg 84%
    11:00 +10°C° 0 mm 5 mps 756 mmHg 80%
    12:00 +13°C° 0 mm 5 mps 756 mmHg 76%
    13:00 +13°C° 0 mm 5 mps 756 mmHg 76%
    14:00 +13°C° 0 mm 5 mps 756 mmHg 76%
    15:00 +14°C° 0 mm 5 mps 756 mmHg 75%
    16:00 +13°C° 0 mm 4 mps 756 mmHg 80%
    17:00 +11°C° 0 mm 3 mps 757 mmHg 85%
    18:00 +10°C° 0 mm 3 mps 757 mmHg 91%
    19:00 +10°C° 0 mm 2 mps 757 mmHg 92%
    20:00 +10°C° 0 mm 2 mps 757 mmHg 93%
    21:00 +9°C° 0 mm 2 mps 758 mmHg 94%
    22:00 +9°C° 0 mm 2 mps 758 mmHg 94%
    23:00 +9°C° 0 mm 1 mps 758 mmHg 94%

    Tomorrow, 24 February, Sunday

    Time Temperature Precipitation Wind Pressure Humidity
    00:00 +9°C° 0 mm 1 mps 759 mmHg 95%
    01:00 +9°C° 0 mm 1 mps 759 mmHg 95%
    02:00 +8°C° 0 mm 1 mps 759 mmHg 95%
    03:00 +7°C° 0 mm 0 mps 759 mmHg 95%
    04:00 +8°C° 0 mm 1 mps 759 mmHg 95%
    05:00 +7°C° 0 mm 1 mps 759 mmHg 95%
    06:00 +7°C° 0 mm 1 mps 759 mmHg 96%
    07:00 +8°C° 0 mm 1 mps 759 mmHg 93%
    08:00 +7°C° 0 mm 2 mps 759 mmHg 90%
    09:00 +8°C° 0 mm 2 mps 759 mmHg 88%
    10:00 +9°C° 0 mm 2 mps 759 mmHg 80%
    11:00 +10°C° 0 mm 3 mps 759 mmHg 73%
    12:00 +12°C° 0 mm 3 mps 760 mmHg 66%
    13:00 +12°C° 0 mm 3 mps 759 mmHg 64%
    14:00 +12°C° 0 mm 3 mps 759 mmHg 62%
    15:00 +13°C° 0 mm 3 mps 759 mmHg 60%
    16:00 +12°C° 0 mm 2 mps 759 mmHg 64%
    17:00 +10°C° 0 mm 2 mps 759 mmHg 69%
    18:00 +8°C° 0 mm 2 mps 759 mmHg 74%
    19:00 +7°C° 0 mm 2 mps 760 mmHg 75%
    20:00 +7°C° 0 mm 2 mps 760 mmHg 75%
    21:00 +6°C° 0 mm 2 mps 760 mmHg 76%
    22:00 +6°C° 0 mm 2 mps 760 mmHg 75%
    23:00 +5°C° 0 mm 2 mps 760 mmHg 74%

    Day after tomorrow, 25 February, Monday

    Time Temperature Precipitation Wind Pressure Humidity
    00:00 +5°C° 0 mm 2 mps 760 mmHg 73%
    01:00 +4°C° 0 mm 2 mps 760 mmHg 72%
    02:00 +5°C° 0 mm 1 mps 760 mmHg 71%
    03:00 +5°C° 0 mm 1 mps 760 mmHg 70%
    04:00 +4°C° 0 mm 1 mps 760 mmHg 69%
    05:00 +3°C° 0 mm 2 mps 760 mmHg 67%
    06:00 +3°C° 0 mm 2 mps 760 mmHg 66%
    07:00 +4°C° 0 mm 2 mps 760 mmHg 66%
    08:00 +5°C° 0 mm 2 mps 760 mmHg 65%
    09:00 +6°C° 0 mm 2 mps 760 mmHg 65%
    10:00 +7°C° 0 mm 2 mps 760 mmHg 62%
    11:00 +9°C° 0 mm 2 mps 761 mmHg 59%
    12:00 +10°C° 0 mm 3 mps 761 mmHg 56%
    13:00 +11°C° 0 mm 3 mps 760 mmHg 57%
    14:00 +11°C° 0 mm 3 mps 760 mmHg 58%
    15:00 +12°C° 0 mm 3 mps 760 mmHg 59%
    16:00 +11°C° 0 mm 3 mps 759 mmHg 66%
    17:00 +9°C° 0 mm 2 mps 759 mmHg 73%
    18:00 +8°C° 0 mm 2 mps 759 mmHg 79%
    19:00 +7°C° 0 mm 2 mps 759 mmHg 80%
    20:00 +7°C° 0 mm 2 mps 759 mmHg 80%
    21:00 +6°C° 0 mm 2 mps 759 mmHg 81%
    22:00 +6°C° 0 mm 2 mps 759 mmHg 81%
    23:00 +6°C° 0 mm 2 mps 759 mmHg 80%

    26 February, Tuesday

    Time Temperature Precipitation Wind Pressure Humidity
    00:00 +5°C° 0 mm 2 mps 759 mmHg 80%
    01:00 +5°C° 0 mm 2 mps 759 mmHg 80%
    02:00 +5°C° 0 mm 2 mps 758 mmHg 80%
    03:00 +5°C° 0 mm 2 mps 758 mmHg 81%
    04:00 +4°C° 0 mm 2 mps 758 mmHg 82%
    05:00 +4°C° 0 mm 2 mps 758 mmHg 84%
    06:00 +5°C° 0 mm 1 mps 757 mmHg 85%
    07:00 +5°C° 0 mm 2 mps 758 mmHg 83%
    08:00 +6°C° 0 mm 2 mps 758 mmHg 81%
    09:00 +7°C° 0 mm 2 mps 758 mmHg 79%
    10:00 +9°C° 0 mm 2 mps 758 mmHg 74%
    11:00 +10°C° 0 mm 2 mps 758 mmHg 69%
    12:00 +13°C° 0 mm 2 mps 758 mmHg 64%
    13:00 +14°C° 0 mm 2 mps 757 mmHg 62%
    14:00 +14°C° 0 mm 2 mps 757 mmHg 61%
    15:00 +15°C° 0 mm 1 mps 757 mmHg 60%
    16:00 +13°C° 0 mm 1 mps 757 mmHg 66%
    17:00 +12°C° 0 mm 1 mps 756 mmHg 73%
    18:00 +10°C° 0 mm 1 mps 756 mmHg 79%
    19:00 +10°C° 0 mm 1 mps 756 mmHg 81%
    20:00 +9°C° 0 mm 1 mps 756 mmHg 83%
    21:00 +9°C° 0 mm 1 mps 756 mmHg 85%
    22:00 +8°C° 0 mm 1 mps 756 mmHg 86%
    23:00 +8°C° 0 mm 1 mps 756 mmHg 87%

    27 February, Wednesday

    Time Temperature Precipitation Wind Pressure Humidity
    00:00 +8°C° 0 mm 1 mps 756 mmHg 88%
    01:00 +8°C° 0 mm 1 mps 755 mmHg 89%
    02:00 +7°C° 0 mm 1 mps 755 mmHg 89%
    03:00 +7°C° 0 mm 1 mps 755 mmHg 90%
    04:00 +7°C° 0 mm 1 mps 755 mmHg 90%
    05:00 +7°C° 0 mm 1 mps 754 mmHg 91%
    06:00 +6°C° 0 mm 1 mps 754 mmHg 91%
    07:00 +7°C° 0 mm 1 mps 754 mmHg 89%
    08:00 +8°C° 0 mm 1 mps 754 mmHg 87%
    09:00 +9°C° 0 mm 1 mps 754 mmHg 85%
    10:00 +10°C° 0 mm 1 mps 754 mmHg 79%
    11:00 +12°C° 0 mm 1 mps 754 mmHg 73%
    12:00 +13°C° 0 mm 2 mps 754 mmHg 67%
    13:00 +14°C° 0 mm 2 mps 754 mmHg 66%
    14:00 +14°C° 0 mm 2 mps 753 mmHg 64%
    15:00 +15°C° 0 mm 2 mps 753 mmHg 62%
    16:00 +13°C° 0 mm 2 mps 753 mmHg 69%
    17:00 +12°C° 0 mm 1 mps 753 mmHg 75%
    18:00 +10°C° 0 mm 1 mps 753 mmHg 81%
    19:00 +10°C° 0 mm 1 mps 753 mmHg 82%
    20:00 +9°C° 0 mm 1 mps 753 mmHg 83%
    21:00 +9°C° 0 mm 1 mps 753 mmHg 85%
    22:00 +8°C° 0 mm 1 mps 753 mmHg 85%
    23:00 +8°C° 0 mm 1 mps 753 mmHg 86%

    28 February, Thursday

    Time Temperature Precipitation Wind Pressure Humidity
    00:00 +8°C° 0 mm 1 mps 753 mmHg 86%
    01:00 +8°C° 0 mm 1 mps 752 mmHg 87%
    02:00 +7°C° 0 mm 1 mps 752 mmHg 87%
    03:00 +7°C° 0 mm 1 mps 752 mmHg 87%
    04:00 +7°C° 0 mm 1 mps 752 mmHg 87%
    05:00 +7°C° 0 mm 1 mps 752 mmHg 88%
    06:00 +6°C° 0 mm 1 mps 752 mmHg 88%
    07:00 +7°C° 0 mm 1 mps 752 mmHg 86%
    08:00 +8°C° 0 mm 1 mps 752 mmHg 84%
    09:00 +9°C° 0 mm 1 mps 752 mmHg 81%
    10:00 +9°C° 0 mm 2 mps 752 mmHg 78%
    11:00 +10°C° 0 mm 2 mps 752 mmHg 74%
    12:00 +13°C° 0 mm 2 mps 753 mmHg 71%
    13:00 +13°C° 0 mm 2 mps 752 mmHg 70%
    14:00 +13°C° 0 mm 2 mps 752 mmHg 69%
    15:00 +14°C° 0 mm 2 mps 752 mmHg 69%
    16:00 +12°C° 0 mm 2 mps 752 mmHg 74%
    17:00 +10°C° 0 mm 2 mps 752 mmHg 80%
    18:00 +9°C° 0 mm 1 mps 752 mmHg 85%
    19:00 +9°C° 0 mm 1 mps 752 mmHg 87%
    20:00 +8°C° 0 mm 1 mps 752 mmHg 88%
    21:00 +7°C° 0 mm 0 mps 752 mmHg 89%
    22:00 +6°C° 0 mm 0 mps 752 mmHg 90%
    23:00 +6°C° 0 mm 0 mps 752 mmHg 90%
    Show more